JO-97
1 43803U 18099AX  24354.12275996  .00016097  00000-0  87842-3 0  9999
2 43803  97.4946  49.2531 0009066  33.4147 326.7655 15.14395304330618
Suomi 100
1 43804U 18099AY  24354.10909658  .00014511  00000-0  82577-3 0  9996
2 43804  97.5011  48.9043 0014459  31.3714 328.8377 15.12864226330577
ISAT
1 43879U 18111D   24354.59283790  .00019192  00000-0  89354-3 0  9998
2 43879  97.6063 260.3568 0013650  78.7237 281.5531 15.19884655327484
UWE-4
1 43880U 18111E   24354.49158892  .00017852  00000-0  88333-3 0  9990
2 43880  97.5997 259.6849 0016665  88.1929 272.1212 15.17743247327454
Sparrow
1 43881U 18111F   24354.48900287  .00020786  00000-0  94652-3 0  9994
2 43881  97.6181 262.5711 0010643 109.6374 250.6010 15.20664990327543
Prox-1
1 44339U 19036A   24354.56184721  .00015274  00000-0  22402-2 0  9995
2 44339  23.9983 106.7748 0006658 279.7761  80.1983 14.73887626292550
SONATE
1 44400U 19038Q   24354.50264630  .00047026  00000-0  80629-3 0  9994
2 44400  97.7125 358.9532 0012555 148.2550 211.9460 15.50976066302624
Taurus 1
1 44530U 19059C   24354.74184815  .00009525  00000-0  19396-2 0  9997
2 44530  98.5898 120.7697 0010801 204.6930 155.3753 14.61206507278807
Duchifat 3
1 44854U 19089C   24354.34783324  .00034389  00000-0  11890-2 0  9992
2 44854  36.9513 355.4621 0012372 212.9443 147.0537 15.28958871276499
TO-108
1 44881U 19093C   24354.70164332  .00001937  00000-0  23373-3 0  9992
2 44881  97.8122  67.8717 0015372  77.0372 283.2559 14.84852673270568
FloripaSat 1
1 44885U 19093G   24354.81369464  .00007314  00000-0  67562-3 0  9994
2 44885  97.8291  76.4255 0012086  62.2835 297.9609 14.94846751271055
RS-44
1 44909U 19096E   24354.47860168  .00000014  00000-0  14267-4 0  9998
2 44909  82.5216 341.6469 0217095 338.2888  20.9114 12.79737070232679
UPMSat 2
1 46276U 20061E   24354.58998980  .00034330  00000-0  67335-3 0  9998
2 46276  97.2719  59.9399 0001525 138.5555 221.5811 15.47276217238703
AmicalSat
1 46287U 20061R   24354.75011465  .00341678  00000-0  15897-2 0  9994
2 46287  97.3134  65.8251 0003247 270.1955  89.8942 15.82474109238349
SALSAT
1 46495U 20068K   24354.48199349  .00010782  00000-0  52766-3 0  9996
2 46495  97.8414 319.3463 0014297  43.9012 316.3354 15.18293803232376
CubeSX-Sirius-HSE
1 47951U 21022V   24354.81604128  .00051392  00000-0  11363-2 0  9997
2 47951  97.4395 254.4792 0008417 175.6854 184.4468 15.43630697207013
CubeSX-HSE
1 47952U 21022W   24354.80900174  .00049246  00000-0  10771-2 0  9994
2 47952  97.4390 254.6234 0008528 174.1265 186.0085 15.43962463207028
KSU-Cubesat
1 47954U 21022Y   24354.68447920  .00081016  00000-0  12447-2 0  9990
2 47954  97.4398 257.3280 0007544 152.6066 207.5586 15.53954759206907
GRBAlpha
1 47959U 21022AD  24354.83222826  .00048328  00000-0  10583-2 0  9996
2 47959  97.4391 254.8147 0008417 174.1151 186.0198 15.43932284205854
Orbicraft-Zorkiy
1 47960U 21022AE  24354.80768084  .00067504  00000-0  11940-2 0  9991
2 47960  97.4419 257.1385 0007406 160.8553 199.2978 15.50061032206666
TUBIN
1 48900U 21059X   24354.77031392  .00031696  00000-0  72213-3 0  9991
2 48900  97.6625 146.6527 0005400 145.5690 214.5907 15.42867511193403
LEDSAT
1 49069U 21073D   24354.19446480  .00039015  00000-0  10170-2 0  9994
2 49069  97.4149  65.4509 0014110 348.4328  11.6591 15.38646922184756
CUTE
1 49263U 21088D   24354.75191016  .00038678  00000-0  11306-2 0  9996
2 49263  97.4740  61.0452 0011351 143.8932 216.3080 15.35119552177941
TeikyoSat 4
1 49396U 21102B   24354.51424129  .00003381  00000-0  23402-3 0  9992
2 49396  97.4362  33.0538 0013134  11.2733 348.8786 15.06263037170639
Z-Sat
1 49399U 21102E   24354.82328179  .00005624  00000-0  33181-3 0  9994
2 49399  97.4062  35.5217 0018536 343.5974  16.4655 15.11790572171009
KOSEN 1
1 49402U 21102H   24354.67582155  .00009467  00000-0  49045-3 0  9993
2 49402  97.3980  37.6527 0016199 323.4252  36.5874 15.16291035171201
HO-113
1 50466U 21131B   24354.79087109  .00001248  00000-0  40722-3 0  9991
2 50466  98.5203  79.0007 0003159 296.4936  63.5928 14.40360465156716
IRIS-A
1 51044U 22002BN  24354.58669181  .00050340  00000-0  92481-3 0  9991
2 51044  97.3584  62.1450 0004816  90.7919 269.3883 15.49070966162931
Foresail-1
1 52766U 22057AL  24354.61293207  .00048557  00000-0  88762-3 0  9993
2 52766  97.5973 126.7524 0007026 190.0527 170.0584 15.49208992142971
SNUGLITE 2
1 52899U 22065F   24354.31976294  .00002526  00000-0  51019-3 0  9991
2 52899  98.1429 132.3570 0006594 296.8237  63.2290 14.62250757131309
IO-117
1 53106U 22080B   24353.24910383 -.00000003  00000-0  00000+0 0  9997
2 53106  70.1357 128.5751 0008289  65.4193 294.7329  6.42557685 57099
FO-118
1 54684U 22167C   24354.84720747  .00112587  00000-0  14452-2 0  9994
2 54684  97.6140 147.4204 0006540 218.8647 141.2138 15.58722593112897
SSS-2B
1 56184U 23054G   24354.76274339  .01522289  17027-2  15659-2 0  9993
2 56184  97.3266 258.9419 0007013 120.4929 239.7048 16.11109908 95042
SO-120
1 56992U 23084BU  24354.58998034  .00147133  00000-0  16768-2 0  9991
2 56992  97.5360 119.5655 0003114  58.5485 301.6076 15.61754743 84726
MRC-100
1 56993U 23084BV  24354.79258107  .00478971  00000-0  20897-2 0  9990
2 56993  97.5297 121.9399 0005026 318.7283  41.3606 15.83508439 84909
UmKA 1 (RS40S)
1 57172U 23091G   24354.80658459  .00007646  00000-0  44968-3 0  9997
2 57172  97.5863  45.2290 0014891 201.3416 158.7194 15.11855141 81493
CubeBel-2 (EU11S)
1 57175U 23091K   24354.85617531  .00010885  00000-0  60038-3 0  9996
2 57175  97.5859  45.6122 0012883 212.3067 147.7376 15.14074572 81520
VERONIKA
1 58261U 23174F   24354.80487106  .00041180  00000-0  11242-2 0  9997
2 58261  97.4392  69.5054 0008342 305.7338  54.3129 15.37273225 62057
KAFASAT
1 58317U 23174BP  24354.57532654  .00082210  00000-0  15546-2 0  9992
2 58317  97.4317  71.3383 0007434 274.7506  85.2895 15.48086689 62179
ENSO
1 58470U 23185J   24354.81834994  .00030608  00000-0  85942-3 0  9995
2 58470  97.4011  60.8584 0009286 345.1269  14.9700 15.36451966 58509
EIRSAT-1
1 58472U 23185L   24354.82733729  .00038032  00000-0  98167-3 0  9994
2 58472  97.4004  61.2666 0008593 343.8052  16.2917 15.39019174 58536
SONATE-2
1 59112U 24043Q   24354.33750063  .00019466  00000-0  73439-3 0  9991
2 59112  97.4957 117.4253 0012823   9.2614 350.8859 15.27005236 43974
MO-122
1 60209U 24125G   24354.31569682  .00021416  00000-0  80021-3 0  9997
2 60209  97.2970 202.6931 0024203  35.1966 325.0866 15.27098642 25581
GRBBeta
1 60237U 24128C   24354.64050292  .00007406  00000-0  60364-3 0  9990
2 60237  61.9945 317.8750 0032104  15.2741 344.9310 14.99882486 24385
Curium One
1 60242U 24128H   24354.39878132  .00012558  00000-0  99320-3 0  9997
2 60242  61.9847 318.7327 0032250   7.8726 352.2863 15.00569072 24352
ROBUSTA-3A
1 60243U 24128J   24354.35803310  .00012302  00000-0  98177-3 0  9996
2 60243  61.9917 319.2128 0030337   5.5217 354.6201 15.00285100 24348
CatSat
1 60246U 24125J   24354.38363707  .00015874  00000-0  62043-3 0  9990
2 60246  97.2771 203.4697 0047523 347.8282  12.1804 15.24874992 23696
CySat-1
1 61501U 98067WZ  24354.53810456  .00419394  00000-0  19004-2 0  9999
2 61501  51.6271 109.9347 0014256 319.7230  40.2715 15.82107719 11320
AO-123
1 61781U 24199AY  24354.76611395  .00011037  00000-0  45554-3 0  9992
2 61781  97.3785 218.8543 0019263  84.4793 275.8641 15.24033169 50676
